Time,TemperatureF,DewpointF,PressureIn,WindDirection,WindDirectionDegrees,WindSpeedMPH,WindSpeedGustMPH,Humidity,HourlyPrecipIn,Conditions,Clouds,dailyrainin,SoftwareType,DateUTC
2013-10-04 01:01:00,58.0,57.0,30.11,WNW,300,0.0,-999.0,97,-99.99,,,-99.99,,2013-10-04 05:01:00,
2013-10-04 01:32:00,58.0,57.0,30.11,WNW,300,0.0,-999.0,97,-99.99,,,-99.99,,2013-10-04 05:32:00,
2013-10-04 01:56:00,58.0,57.0,30.11,WNW,300,0.0,-999.0,97,-99.99,,,-99.99,,2013-10-04 05:56:00,
2013-10-04 02:18:00,58.0,57.0,30.11,WNW,300,0.0,-999.0,97,-99.99,,,-99.99,,2013-10-04 06:18:00,
2013-10-04 02:27:00,58.0,57.0,30.11,WNW,300,0.0,-999.0,97,-99.99,,,-99.99,,2013-10-04 06:27:00,
2013-10-04 02:55:00,57.0,56.0,30.11,WNW,300,0.0,-999.0,97,-99.99,,,-99.99,,2013-10-04 06:55:00,
2013-10-04 03:18:00,57.0,56.0,30.11,WNW,300,0.0,-999.0,97,-99.99,,,-99.99,,2013-10-04 07:18:00,
2013-10-04 03:27:00,57.0,56.0,30.11,WNW,300,0.0,-999.0,98,-99.99,,,-99.99,,2013-10-04 07:27:00,
2013-10-04 03:55:00,57.0,56.0,30.11,WNW,300,0.0,-999.0,98,-99.99,,,-99.99,,2013-10-04 07:55:00,
2013-10-04 04:27:00,56.0,55.0,30.11,WNW,300,0.0,-999.0,97,-99.99,,,-99.99,,2013-10-04 08:27:00,
2013-10-04 04:55:00,55.0,54.0,30.11,WNW,300,0.0,-999.0,98,-99.99,,,-99.99,,2013-10-04 08:55:00,
2013-10-04 05:17:00,55.0,54.0,30.11,WNW,300,0.0,-999.0,98,-99.99,,,-99.99,,2013-10-04 09:17:00,
2013-10-04 05:27:00,55.0,54.0,30.12,WNW,300,0.0,-999.0,98,-99.99,,,-99.99,,2013-10-04 09:27:00,
2013-10-04 05:58:00,56.0,55.0,30.12,WNW,300,0.0,-999.0,98,-99.99,,,-99.99,,2013-10-04 09:58:00,
2013-10-04 06:20:00,56.0,55.0,30.12,WNW,300,1.0,-999.0,98,-99.99,,,-99.99,,2013-10-04 10:20:00,
2013-10-04 06:30:00,57.0,57.0,30.12,NW,304,1.0,-999.0,99,-99.99,,,-99.99,,2013-10-04 10:30:00,
2013-10-04 06:58:00,56.0,55.0,30.13,NW,304,0.0,-999.0,98,-99.99,,,-99.99,,2013-10-04 10:58:00,
2013-10-04 07:20:00,55.0,54.0,30.13,NW,304,0.0,-999.0,98,-99.99,,,-99.99,,2013-10-04 11:20:00,
2013-10-04 07:30:00,56.0,55.0,30.13,NW,304,0.0,-999.0,98,-99.99,,,-99.99,,2013-10-04 11:30:00,
2013-10-04 07:57:00,55.0,54.0,30.14,NW,304,0.0,-999.0,98,-99.99,,,-99.99,,2013-10-04 11:57:00,
2013-10-04 08:20:00,55.0,54.0,30.14,NW,304,0.0,-999.0,98,-99.99,,,-99.99,,2013-10-04 12:20:00,
2013-10-04 08:30:00,55.0,54.0,30.15,NW,304,0.0,-999.0,98,-99.99,,,-99.99,,2013-10-04 12:30:00,
2013-10-04 08:57:00,56.0,56.0,30.15,NW,304,0.0,-999.0,99,-99.99,,,-99.99,,2013-10-04 12:57:00,
2013-10-04 09:20:00,58.0,58.0,30.16,NW,304,0.0,-999.0,99,-99.99,,,-99.99,,2013-10-04 13:20:00,
2013-10-04 09:29:00,59.0,59.0,30.16,NW,304,0.0,-999.0,99,-99.99,,,-99.99,,2013-10-04 13:29:00,
2013-10-04 09:48:00,61.0,61.0,30.16,NW,304,0.0,-999.0,100,-99.99,,,-99.99,,2013-10-04 13:48:00,
2013-10-04 09:57:00,63.0,63.0,30.16,NW,304,1.0,-999.0,100,-99.99,,,-99.99,,2013-10-04 13:57:00,
2013-10-04 10:19:00,64.0,64.0,30.16,WNW,295,3.0,-999.0,100,-99.99,,,-99.99,,2013-10-04 14:19:00,
2013-10-04 10:29:00,67.0,65.0,30.17,WNW,301,3.0,-999.0,92,-99.99,,,-99.99,,2013-10-04 14:29:00,
2013-10-04 10:49:00,68.0,64.0,30.17,NW,306,5.0,-999.0,86,-99.99,,,-99.99,,2013-10-04 14:49:00,
2013-10-04 10:57:00,69.0,63.0,30.16,NW,322,4.0,-999.0,82,-99.99,,,-99.99,,2013-10-04 14:57:00,
2013-10-04 11:20:00,70.0,63.0,30.16,NNW,344,5.0,-999.0,79,-99.99,,,-99.99,,2013-10-04 15:20:00,
2013-10-04 11:30:00,71.0,63.0,30.16,WNW,283,5.0,-999.0,76,-99.99,,,-99.99,,2013-10-04 15:30:00,
2013-10-04 11:49:00,72.0,64.0,30.15,West,262,4.0,-999.0,75,-99.99,,,-99.99,,2013-10-04 15:49:00,
2013-10-04 11:58:00,71.0,63.0,30.15,WNW,300,5.0,-999.0,77,-99.99,,,-99.99,,2013-10-04 15:58:00,
2013-10-04 12:12:00,71.0,63.0,30.15,WNW,300,5.0,-999.0,77,-99.99,,,-99.99,,2013-10-04 16:12:00,
2013-10-04 12:20:00,71.0,63.0,30.15,WNW,300,5.0,-999.0,77,-99.99,,,-99.99,,2013-10-04 16:20:00,
2013-10-04 12:30:00,72.0,63.0,30.15,NW,309,4.0,-999.0,73,-99.99,,,-99.99,,2013-10-04 16:30:00,
2013-10-04 12:50:00,73.0,64.0,30.15,East,98,1.0,-999.0,74,-99.99,,,-99.99,,2013-10-04 16:50:00,
2013-10-04 12:58:00,75.0,65.0,30.15,East,85,2.0,-999.0,70,-99.99,,,-99.99,,2013-10-04 16:58:00,
2013-10-04 13:30:00,74.0,62.0,30.14,NNE,23,1.0,-999.0,67,-99.99,,,-99.99,,2013-10-04 17:30:00,
2013-10-04 13:58:00,76.0,65.0,30.14,North,5,2.0,-999.0,70,-99.99,,,-99.99,,2013-10-04 17:58:00,
2013-10-04 14:22:00,76.0,62.0,30.13,NNW,331,3.0,-999.0,62,-99.99,,,-99.99,,2013-10-04 18:22:00,
2013-10-04 14:31:00,74.0,63.0,30.12,NNW,329,3.0,-999.0,68,-99.99,,,-99.99,,2013-10-04 18:31:00,
2013-10-04 14:50:00,75.0,62.0,30.11,NNW,338,2.0,-999.0,64,-99.99,,,-99.99,,2013-10-04 18:50:00,
2013-10-04 14:56:00,77.0,62.0,30.11,WNW,283,3.0,-999.0,60,-99.99,,,-99.99,,2013-10-04 18:56:00,
2013-10-04 15:12:00,77.0,63.0,30.11,NNW,345,2.0,-999.0,62,-99.99,,,-99.99,,2013-10-04 19:12:00,
2013-10-04 15:22:00,78.0,63.0,30.10,NNW,342,3.0,-999.0,61,-99.99,,,-99.99,,2013-10-04 19:22:00,
2013-10-04 15:43:00,78.0,62.0,30.10,North,355,1.0,-999.0,59,-99.99,,,-99.99,,2013-10-04 19:43:00,
2013-10-04 15:52:00,79.0,63.0,30.10,ESE,117,2.0,-999.0,59,-99.99,,,-99.99,,2013-10-04 19:52:00,
2013-10-04 16:11:00,78.0,62.0,30.09,SE,141,3.0,-999.0,58,-99.99,,,-99.99,,2013-10-04 20:11:00,
2013-10-04 16:22:00,78.0,62.0,30.09,NNW,328,2.0,-999.0,59,-99.99,,,-99.99,,2013-10-04 20:22:00,
2013-10-04 16:52:00,79.0,61.0,30.09,West,278,1.0,-999.0,55,-99.99,,,-99.99,,2013-10-04 20:52:00,
2013-10-04 17:12:00,79.0,62.0,30.09,SSW,211,2.0,-999.0,57,-99.99,,,-99.99,,2013-10-04 21:12:00,
2013-10-04 17:22:00,78.0,62.0,30.09,WNW,288,4.0,-999.0,58,-99.99,,,-99.99,,2013-10-04 21:22:00,
2013-10-04 17:54:00,77.0,63.0,30.09,WNW,294,3.0,-999.0,61,-99.99,,,-99.99,,2013-10-04 21:54:00,
2013-10-04 18:23:00,77.0,64.0,30.09,NW,315,0.0,-999.0,65,-99.99,,,-99.99,,2013-10-04 22:23:00,
2013-10-04 18:43:00,77.0,66.0,30.09,NW,315,0.0,-999.0,69,-99.99,,,-99.99,,2013-10-04 22:43:00,
2013-10-04 18:52:00,76.0,65.0,30.09,NW,315,0.0,-999.0,70,-99.99,,,-99.99,,2013-10-04 22:52:00,
2013-10-04 19:22:00,73.0,65.0,30.09,NW,315,0.0,-999.0,75,-99.99,,,-99.99,,2013-10-04 23:22:00,
2013-10-04 19:53:00,69.0,63.0,30.09,NW,315,0.0,-999.0,82,-99.99,,,-99.99,,2013-10-04 23:53:00,
2013-10-04 20:12:00,68.0,63.0,30.09,NW,315,0.0,-999.0,83,-99.99,,,-99.99,,2013-10-05 00:12:00,
2013-10-04 20:23:00,68.0,63.0,30.10,NW,315,0.0,-999.0,83,-99.99,,,-99.99,,2013-10-05 00:23:00,
2013-10-04 20:42:00,67.0,62.0,30.10,NW,315,0.0,-999.0,84,-99.99,,,-99.99,,2013-10-05 00:42:00,
2013-10-04 20:52:00,65.0,61.0,30.11,NW,315,0.0,-999.0,87,-99.99,,,-99.99,,2013-10-05 00:52:00,
2013-10-04 21:11:00,64.0,61.0,30.11,NW,315,0.0,-999.0,89,-99.99,,,-99.99,,2013-10-05 01:11:00,
2013-10-04 21:22:00,63.0,60.0,30.12,NW,315,0.0,-999.0,91,-99.99,,,-99.99,,2013-10-05 01:22:00,
2013-10-04 21:43:00,63.0,61.0,30.12,NW,315,0.0,-999.0,92,-99.99,,,-99.99,,2013-10-05 01:43:00,
2013-10-04 21:52:00,63.0,61.0,30.12,NW,315,0.0,-999.0,92,-99.99,,,-99.99,,2013-10-05 01:52:00,
2013-10-04 22:11:00,62.0,60.0,30.13,NW,315,0.0,-999.0,93,-99.99,,,-99.99,,2013-10-05 02:11:00,
2013-10-04 22:22:00,62.0,60.0,30.14,NW,315,0.0,-999.0,93,-99.99,,,-99.99,,2013-10-05 02:22:00,
2013-10-04 22:42:00,61.0,59.0,30.14,NW,315,0.0,-999.0,93,-99.99,,,-99.99,,2013-10-05 02:42:00,
2013-10-04 22:52:00,61.0,59.0,30.14,NW,315,0.0,-999.0,94,-99.99,,,-99.99,,2013-10-05 02:52:00,
2013-10-04 23:23:00,61.0,59.0,30.14,NW,315,0.0,-999.0,94,-99.99,,,-99.99,,2013-10-05 03:23:00,
2013-10-04 23:45:00,61.0,60.0,30.14,NW,315,1.0,-999.0,95,-99.99,,,-99.99,,2013-10-05 03:45:00,
2013-10-04 23:55:00,60.0,58.0,30.13,NW,315,0.0,-999.0,94,-99.99,,,-99.99,,2013-10-05 03:55:00,